TimeCST,TemperatureF,Dew PointF,Humidity,Sea Level PressureIn,VisibilityMPH,Wind Direction,Wind SpeedMPH,Gust SpeedMPH,PrecipitationIn,Events,Conditions,WindDirDegrees,DateUTC
12:15 AM,8.6,3.2,79,30.01,10.0,Calm,Calm,-,N/A,,Clear,0,2013-01-27 06:15:00
12:35 AM,8.6,3.2,79,30.00,10.0,SE,6.9,-,N/A,,Mostly Cloudy,130,2013-01-27 06:35:00
12:55 AM,8.6,5.0,85,30.00,10.0,Calm,Calm,-,N/A,,Scattered Clouds,0,2013-01-27 06:55:00
1:15 AM,8.6,5.0,85,29.98,10.0,SE,4.6,-,N/A,,Clear,130,2013-01-27 07:15:00
1:35 AM,8.6,5.0,85,29.98,10.0,SE,5.8,-,N/A,,Clear,130,2013-01-27 07:35:00
1:55 AM,10.4,5.0,79,29.98,10.0,SE,4.6,-,N/A,,Clear,140,2013-01-27 07:55:00
2:15 AM,10.4,5.0,79,29.98,10.0,Calm,Calm,-,N/A,,Clear,0,2013-01-27 08:15:00
2:36 AM,8.6,5.0,85,29.98,10.0,Calm,Calm,-,N/A,,Clear,0,2013-01-27 08:36:00
2:55 AM,8.6,3.2,79,29.97,10.0,Calm,Calm,-,N/A,,Clear,0,2013-01-27 08:55:00
3:15 AM,8.6,3.2,79,29.96,10.0,Calm,Calm,-,N/A,,Clear,0,2013-01-27 09:15:00
3:35 AM,8.6,3.2,79,29.96,10.0,Calm,Calm,-,N/A,,Clear,0,2013-01-27 09:35:00
3:55 AM,8.6,3.2,79,29.95,10.0,Calm,Calm,-,N/A,,Clear,0,2013-01-27 09:55:00
4:15 AM,8.6,3.2,79,29.95,10.0,Calm,Calm,-,N/A,,Clear,0,2013-01-27 10:15:00
4:35 AM,8.6,3.2,79,29.94,10.0,Calm,Calm,-,N/A,,Clear,0,2013-01-27 10:35:00
4:55 AM,8.6,3.2,79,29.93,10.0,Calm,Calm,-,N/A,,Clear,0,2013-01-27 10:55:00
5:15 AM,8.6,3.2,79,29.93,10.0,East,4.6,-,N/A,,Clear,100,2013-01-27 11:15:00
5:35 AM,8.6,5.0,85,29.92,10.0,ESE,3.5,-,N/A,,Clear,110,2013-01-27 11:35:00
6:15 AM,8.6,5.0,85,29.91,10.0,East,4.6,-,N/A,,Clear,100,2013-01-27 12:15:00
6:35 AM,8.6,5.0,85,29.91,10.0,ESE,4.6,-,N/A,,Clear,110,2013-01-27 12:35:00
6:55 AM,10.4,6.8,85,29.91,10.0,ESE,4.6,-,N/A,,Clear,110,2013-01-27 12:55:00
7:15 AM,10.4,6.8,85,29.92,10.0,ESE,4.6,-,N/A,,Clear,120,2013-01-27 13:15:00
7:35 AM,10.4,6.8,85,29.92,10.0,ESE,3.5,-,N/A,,Clear,110,2013-01-27 13:35:00
7:55 AM,10.4,6.8,85,29.92,10.0,ESE,4.6,-,N/A,,Clear,110,2013-01-27 13:55:00
8:15 AM,10.4,6.8,85,29.91,10.0,Calm,Calm,-,N/A,,Clear,0,2013-01-27 14:15:00
8:35 AM,10.4,6.8,85,29.91,10.0,Calm,Calm,-,N/A,,Clear,0,2013-01-27 14:35:00
8:55 AM,10.4,6.8,85,29.90,10.0,Calm,Calm,-,N/A,,Clear,0,2013-01-27 14:55:00
9:15 AM,12.2,8.6,85,29.90,10.0,East,5.8,-,N/A,,Clear,100,2013-01-27 15:15:00
9:35 AM,14.0,10.4,86,29.90,10.0,ESE,4.6,-,N/A,,Clear,120,2013-01-27 15:35:00
9:55 AM,15.8,10.4,79,29.89,10.0,ESE,6.9,-,N/A,,Clear,120,2013-01-27 15:55:00
10:15 AM,17.6,10.4,73,29.88,10.0,ESE,5.8,-,N/A,,Clear,120,2013-01-27 16:15:00
10:35 AM,19.4,12.2,74,29.88,10.0,East,5.8,-,N/A,,Clear,100,2013-01-27 16:35:00
10:55 AM,21.2,14.0,74,29.88,10.0,ESE,4.6,-,N/A,,Clear,110,2013-01-27 16:55:00
11:15 AM,21.2,14.0,74,29.87,10.0,East,5.8,-,N/A,,Clear,100,2013-01-27 17:15:00
11:35 AM,23.0,17.6,80,29.86,10.0,Calm,Calm,-,N/A,,Clear,0,2013-01-27 17:35:00
11:55 AM,24.8,17.6,74,29.86,10.0,ESE,4.6,-,N/A,,Clear,120,2013-01-27 17:55:00
12:15 PM,26.6,19.4,74,29.85,10.0,Calm,Calm,-,N/A,,Clear,0,2013-01-27 18:15:00
12:35 PM,28.4,19.4,69,29.84,10.0,ESE,5.8,-,N/A,,Clear,110,2013-01-27 18:35:00
12:55 PM,28.4,19.4,69,29.84,10.0,SE,5.8,-,N/A,,Clear,130,2013-01-27 18:55:00
1:15 PM,28.4,19.4,69,29.84,10.0,ESE,5.8,-,N/A,,Clear,120,2013-01-27 19:15:00
1:35 PM,28.4,21.2,74,29.83,10.0,Calm,Calm,-,N/A,,Clear,0,2013-01-27 19:35:00
1:55 PM,30.2,21.2,69,29.82,10.0,ESE,3.5,-,N/A,,Clear,120,2013-01-27 19:55:00
2:15 PM,30.2,21.2,69,29.82,10.0,Calm,Calm,-,N/A,,Clear,0,2013-01-27 20:15:00
2:35 PM,30.2,21.2,69,29.82,10.0,Calm,Calm,-,N/A,,Clear,0,2013-01-27 20:35:00
2:55 PM,30.2,21.2,69,29.82,10.0,East,5.8,-,N/A,,Clear,100,2013-01-27 20:55:00
3:15 PM,30.2,19.4,64,29.81,10.0,East,4.6,-,N/A,,Clear,100,2013-01-27 21:15:00
3:35 PM,28.4,19.4,69,29.81,10.0,East,6.9,-,N/A,,Scattered Clouds,100,2013-01-27 21:35:00
3:55 PM,28.4,21.2,74,29.81,10.0,Calm,Calm,-,N/A,,Mostly Cloudy,0,2013-01-27 21:55:00
4:15 PM,28.4,21.2,74,29.80,10.0,Calm,Calm,-,N/A,,Overcast,0,2013-01-27 22:15:00
4:35 PM,28.4,21.2,74,29.80,10.0,Calm,Calm,-,N/A,,Overcast,0,2013-01-27 22:35:00
4:55 PM,26.6,19.4,74,29.80,10.0,ESE,4.6,-,N/A,,Mostly Cloudy,110,2013-01-27 22:55:00
5:15 PM,26.6,19.4,74,29.80,10.0,Calm,Calm,-,N/A,,Clear,0,2013-01-27 23:15:00
5:35 PM,24.8,19.4,80,29.80,10.0,Calm,Calm,-,N/A,,Clear,0,2013-01-27 23:35:00
5:55 PM,24.8,19.4,80,29.80,10.0,ESE,4.6,-,N/A,,Clear,120,2013-01-27 23:55:00
6:15 PM,24.8,19.4,80,29.80,10.0,Calm,Calm,-,N/A,,Clear,0,2013-01-28 00:15:00
6:35 PM,23.0,17.6,80,29.79,10.0,Calm,Calm,-,N/A,,Clear,0,2013-01-28 00:35:00
6:55 PM,23.0,17.6,80,29.80,10.0,Calm,Calm,-,N/A,,Clear,0,2013-01-28 00:55:00
7:15 PM,23.0,19.4,86,29.80,10.0,Calm,Calm,-,N/A,,Scattered Clouds,0,2013-01-28 01:15:00
7:35 PM,24.8,19.4,80,29.79,10.0,Calm,Calm,-,N/A,,Mostly Cloudy,0,2013-01-28 01:35:00
7:55 PM,23.0,19.4,86,29.79,10.0,Calm,Calm,-,N/A,,Scattered Clouds,0,2013-01-28 01:55:00
8:15 PM,21.2,19.4,93,29.79,10.0,Calm,Calm,-,N/A,,Clear,0,2013-01-28 02:15:00
8:35 PM,21.2,17.6,86,29.79,10.0,Calm,Calm,-,N/A,,Scattered Clouds,0,2013-01-28 02:35:00
8:55 PM,21.2,17.6,86,29.79,10.0,Calm,Calm,-,N/A,,Overcast,0,2013-01-28 02:55:00
9:15 PM,21.2,19.4,93,29.79,10.0,Calm,Calm,-,N/A,,Overcast,0,2013-01-28 03:15:00
9:35 PM,23.0,19.4,86,29.79,10.0,Calm,Calm,-,N/A,,Overcast,0,2013-01-28 03:35:00
9:55 PM,23.0,19.4,86,29.79,10.0,Calm,Calm,-,N/A,,Overcast,0,2013-01-28 03:55:00
10:15 PM,23.0,19.4,86,29.79,10.0,Calm,Calm,-,N/A,,Overcast,0,2013-01-28 04:15:00
10:35 PM,23.0,19.4,86,29.78,10.0,Calm,Calm,-,N/A,,Overcast,0,2013-01-28 04:35:00
10:55 PM,24.8,21.2,86,29.79,10.0,Calm,Calm,-,N/A,,Overcast,0,2013-01-28 04:55:00
11:15 PM,24.8,21.2,86,29.78,10.0,Calm,Calm,-,N/A,,Overcast,0,2013-01-28 05:15:00
11:35 PM,26.6,21.2,80,29.78,10.0,Calm,Calm,-,N/A,,Overcast,0,2013-01-28 05:35:00
11:55 PM,26.6,23.0,86,29.78,10.0,Calm,Calm,-,N/A,,Overcast,0,2013-01-28 05:55:00